K2GFM Weather Reports


time (UTC)temp
C
wind
direction
speed
KPH
gust
KPH
rain 1hr
cm
rain 24hr
cm
rain mn
cm
humidity
%
barometer
mb
20260505004559 15 107 4.8 17.7 0.00 0.00 0.00 70 1012.2
20260505003059 16 148 4.8 16.1 0.00 0.00 0.00 69 1012.1
20260505001557 16 84 4.8 22.5 0.00 0.00 0.00 69 1012.0
20260505000107 16 119 3.2 14.5 0.00 0.00 0.00 68 1011.9
20260504234627 16 284 1.6 14.5 0.00 0.00 0.00 68 1011.8
20260504233100 16 153 3.2 16.1 0.00 0.00 0.00 67 1011.8
20260504231605 17 120 3.2 11.3 0.00 0.00 0.00 66 1011.7
20260504230059 17 0 3.2 11.3 0.00 0.00 0.00 67 1011.7
20260504224557 17 136 3.2 11.3 0.00 0.00 0.00 68 1011.8
20260504223058 17 155 6.4 11.3 0.00 0.00 0.00 69 1011.7
20260504221608 17 123 4.8 12.9 0.00 0.00 0.00 69 1011.8
20260504220058 16 231 8.0 17.7 0.00 0.00 0.00 68 1011.8
20260504214558 17 205 6.4 17.7 0.00 0.00 0.00 67 1011.7
20260504213057 17 103 6.4 14.5 0.00 0.00 0.00 67 1011.8
20260504211559 17 221 6.4 20.9 0.00 0.00 0.00 67 1011.8
20260504210110 17 198 8.0 16.1 0.00 0.00 0.00 68 1011.9
20260504204603 17 184 8.0 22.5 0.00 0.00 0.00 66 1012.0
20260504203104 18 162 9.7 19.3 0.00 0.00 0.00 64 1012.1
20260504201614 18 179 6.4 22.5 0.00 0.00 0.00 63 1012.1
20260504200110 18 212 9.7 25.7 0.00 0.00 0.00 63 1012.0
20260504194612 18 146 6.4 17.7 0.00 0.00 0.00 61 1012.1
20260504193100 18 198 6.4 19.3 0.00 0.00 0.00 61 1012.2
20260504191557 18 150 4.8 16.1 0.00 0.00 0.00 60 1012.2
20260504190130 18 129 9.7 17.7 0.00 0.00 0.00 59 1012.4
20260504184606 18 293 3.2 17.7 0.00 0.00 0.00 60 1012.6
20260504183058 19 162 6.4 19.3 0.00 0.00 0.00 58 1012.8
20260504181612 18 160 9.7 17.7 0.00 0.00 0.00 60 1013.0
20260504180150 19 143 6.4 22.5 0.00 0.00 0.00 59 1013.2
20260504174556 19 153 6.4 17.7 0.00 0.00 0.00 61 1013.1
20260504173118 20 160 4.8 19.3 0.00 0.00 0.00 58 1013.5
20260504171602 20 302 6.4 16.1 0.00 0.00 0.00 56 1013.5
20260504140113 18 153 3.2 16.1 0.00 0.00 0.00 48 1015.4
20260504120114 11 0 0.0 3.2 0.00 0.00 0.00 68 1016.1
20260504081558 7 0 0.0 4.8 0.00 0.00 0.00 76 1016.3
20260504050133 6 0 0.0 0.0 0.00 0.00 0.00 77 1015.9
20260504044559 7 0 0.0 0.0 0.00 0.00 0.00 75 1015.8
20260504043101 7 0 0.0 0.0 0.00 0.00 0.00 74 1015.6
20260504041558 7 0 0.0 0.0 0.00 0.00 0.00 74 1015.6
20260504040105 6 0 0.0 0.0 0.00 0.00 0.00 74 1015.5
20260504034558 6 0 0.0 1.6 0.00 0.00 0.00 73 1015.5
20260504033058 6 0 0.0 0.0 0.00 0.00 0.00 73 1015.4
20260504031623 6 0 0.0 0.0 0.00 0.00 0.00 72 1015.4
20260504030058 6 0 0.0 0.0 0.00 0.00 0.00 69 1015.3
20260504024556 7 0 0.0 0.0 0.00 0.00 0.00 67 1015.3
20260504023100 7 0 0.0 0.0 0.00 0.00 0.00 64 1015.2
20260504021609 7 0 0.0 0.0 0.00 0.00 0.00 64 1015.2
20260504020106 7 0 0.0 0.0 0.00 0.00 0.00 62 1015.2
20260504014600 7 0 0.0 0.0 0.00 0.00 0.00 61 1015.2
20260504013110 8 0 0.0 0.0 0.00 0.00 0.00 61 1015.0
20260504011600 8 0 0.0 0.0 0.00 0.00 0.00 59 1015.0
20260504010115 8 0 0.0 0.0 0.00 0.00 0.00 55 1014.6